Location: Mason
(37.5237°N, 89.2543°W)
Time: 07:45:30
(UTC+00:00)

Cosmos 1825 Rocket - Pass Details

Date: 24 January 2021
Orbit: 604 x 631 km, 82.5° (Epoch: 08 March)

Event Time Altitude Azimuth Distance (km) Brightness Sun altitude
Rises 12:09:45 0° 354° (N) 2,928 6.8 -11.4°
Reaches altitude 10° 12:12:00 10° 355° (N) 2,017 6.0 -10.9°
Maximum altitude 12:16:29 79° 83° (E) 647 3.8 -10.1°
Drops below altitude 10° 12:20:55 10° 170° (S) 2,000 6.5 -9.2°
Sets 12:23:08 0° 172° (S) 2,901 7.4 -8.8°
